sat.trackr.live / text

‹ back to catalog

STARLINK-11076 [DTC]

NORAD 58709 · 2024-002E

PAYLOAD ACTIVE UNKNOWN

§ Identity

Operator
Country
US
Launch date
2024-01-03
Launch site
AFWTR
Launch vehicle
Mass (kg)
RCS (m²)

Purposes: comms

External: N2YO · Heavens-Above · Gunter

§ Orbital elements

Epoch: 2026-05-24T17:46:48.032544Z

Period
91.74 min
Inclination
53.1595°
Eccentricity
0.0001172
Mean motion
15.69707531 rev/d
Perigee alt
358.9 km
Apogee alt
360.5 km
Semi-major
6,737.9 km
B*
1.5553e-5
RAAN
258.9993°
Arg perigee
98.5724°
Mean anomaly
261.5427°
Rev number
13,838

§ Raw data

STARLINK-11076 [DTC]1 58709U 24002E   26144.74083371  .00001296  00000+0  15553-4 0  99972 58709  53.1595 258.9993 0001172  98.5724 261.5427 15.69707531138384

JSON: /api/v1/satellites/58709 · /tle

For live sub-satellite position, see the globe view (requires WebGL).

§ Visibility from observer

Set your observer location to see the next 7 days of passes ≥ 10°. The values pass through the URL so the page stays shareable.

No JS? Fill the form by hand. The geolocation button needs JavaScript.